Location: Sihaung
(22.8641°N, 94.0549°E)
Time: 03:04:03
(UTC+00:00)

YAOGAN 1 - Pass Details

Date: 03 March 2021
Orbit: 618 x 620 km, 97.9° (Epoch: 12 April)

Event Time Altitude Azimuth Distance (km) Brightness Sun altitude
Rises 12:39:00 0° 166° (SSE) 2,880 5.9 -12.5°
Reaches altitude 10° 12:41:11 10° 165° (SSE) 1,977 5.0 -13.0°
Maximum altitude 12:45:29 83° 77° (ENE) 627 2.5 -14.0°
Drops below altitude 10° 12:49:48 10° 350° (N) 1,985 5.3 -15.0°
Sets 12:52:00 0° 350° (N) 2,893 6.1 -15.5°
